Current weather by "City, St" or "zip code"  
 
Advertise Here

Current Conditions: Chicago / West Chicago, Dupage Airport, IL

Fair


73.0 F

Last Updated on Jul 26 2021, 10:52 pm CDT
Humidity: 79%
Wind Speed: SW 3.5 mph
Barometer 30.02 in
Dewpoint: 66.0 F
Visibility: 10.00 mi
Precip: --
Heat Index: NA
Wind Chill: NA
Current conditions at:

Chicago / West Chicago, Dupage Airport, IL (KDPA)

Lat: 41.89639 Lon: 88.25111

Local Radar Image active severe weather and emergency alerts image image weather storm and storm spotter reports image weather observation monitoring service image
Local
Radar
Active
Alerts
Storm Reports Obs
Monitoring

Sign-up For Email & Text Message Weather Alert Notification Services


Advertise Here

Observation History for Chicago / West Chicago, Dupage Airport, IL


Time Wind
(mph)
Vis
(mi)
Weather Precip (in) Temperature (F) Relative
Humidity
Wind
Chill
(F)
Heat
Index
(F)
Pressure
Air Dwpt altimeter
(in)
sea level
(mb)
Rmks
10:52 pm CDT SW 3.5 10.00 Fair -- 73.0 66.0 79% NA NA 30.02 1016.0
9:52 pm CDT S 3.5 10.00 Fair -- 74.0 64.9 74% NA NA 30.02 1015.8
8:52 pm CDT S 3.5 10.00 Fair -- 78.0 66.0 67% NA NA 30.01 1015.4
7:52 pm CDT W 3.5 10.00 Fair -- 82.0 64.9 56% NA 84 30.00 1015.4
6:52 pm CDT W 8.1 10.00 Fair -- 85.0 63.0 48% NA 86 30.00 1015.5
5:52 pm CDT W 10.4 10.00 Fair -- 87.0 62.1 43% NA 87 30.01 1015.5
4:52 pm CDT NW 6.9 10.00 Fair -- 89.0 64.0 43% NA 90 30.02 1015.8
3:52 pm CDT 3.5 10.00 Fair -- 89.0 63.0 42% NA 90 30.02 1016.0
2:52 pm CDT 6.9 10.00 Fair -- 90.0 63.0 41% NA 91 30.03 1016.3
1:52 pm CDT N 0.0 10.00 Fair -- 91.0 57.0 32% NA 90 30.04 1016.4
12:52 pm CDT N 3.5 10.00 Fair -- 90.0 57.0 33% NA 89 30.04 1016.7
11:52 am CDT N 0.0 10.00 Fair -- 89.0 55.9 33% NA 87 30.05 1016.9
10:52 am CDT SE 3.5 10.00 Fair -- 85.0 61.0 45% NA 85 30.04 1016.7
9:52 am CDT N 0.0 10.00 Fair -- 82.0 64.9 56% NA 84 30.04 1016.8
8:52 am CDT N 4.6 10.00 Fair -- 79.0 62.1 56% NA NA 30.04 1016.8
7:52 am CDT NW 5.8 10.00 Fair -- 74.0 61.0 64% NA NA 30.04 1016.6
6:52 am CDT N 3.5 10.00 Fair -- 68.0 61.0 78% NA NA 30.03 1016.4
5:52 am CDT N 0.0 10.00 Fair -- 64.0 57.9 81% NA NA 30.01 1015.9
4:52 am CDT N 0.0 10.00 Fair -- 66.0 59.0 78% NA NA 30.01 1015.6
3:52 am CDT N 0.0 10.00 Fair -- 66.0 59.0 78% NA NA 30.00 1015.2
2:52 am CDT N 0.0 10.00 Fair -- 67.0 60.1 79% NA NA 29.99 1014.8
1:52 am CDT N 0.0 10.00 Fair -- 70.0 61.0 73% NA NA 29.99 1014.9
12:52 am CDT N 0.0 10.00 Fair -- 71.0 62.1 73% NA NA 29.99 1014.8
11:52 pm CDT N 0.0 10.00 Fair -- 73.0 63.0 71% NA NA 29.98 1014.6

Regional Weather Observation


De Kalb Taylor Municipal Airport, IL (KDKB)

Fair
72.0 F

Chicago / West Chicago, Dupage Airport, IL (KDPA)

Fair
73.0 F

Aurora Municipal Airport, IL (KARR)

Fair
68.0 F

Burlington Municipal Airport, WI (KBUU)

NULL
70.0 F

Lewis University Airport, IL (KLOT)

Fair
74.0 F

Chicago / Wheeling, Pal-Waukee Airport, IL (KPWK)

Fair
81.0 F
Advertise Here

Advertise Here